Starlink 5415

operational
NORAD ID: 54796 Int'l Des: 2022-175 Owner: SPXS Country: US Constellation: starlink
LEOCIRCULAR

Über Starlink 5415

Beschreibung wird geladen...

Live-Position

3D-Globus wird geladen...

Nächste Überflüge

Höhenverlauf

Altitude vs Time

uPlot chart will show altitude changes over time

Zweizeiliger Elementsatz

1 54796U 22175AQ 25351.55580778 .00000888 00000-0 73856-4 0 9996
2 54796 53.2177 37.5850 0001272 89.3779 270.7359 15.08837472167733
Epoch: 17. Dez. 2025 • Age: 22 hours

Aktueller Status

Höhe 542.1 km
Geschwindigkeit 7.60 km/s
Subsatellitenpunkt 36.85°N, 162.77°E
Startdatum 17. Dez. 2022
Alter 3 years
Typ internet

Technische Details

Klassifizierung Payload
Masse 305.00 kg
Trockenmasse 290.00 kg
Gesamtmasse 305.00 kg
Länge 0.20 m
Durchmesser 2.80 m
Spannweite 9.00 m
Form Box + pan
Hersteller SPXS
Bus-Typ Starlink
Phasenstatus In Orbit
Besitzer/Staat SPXS/US

Große Konstellationen

Loading constellations...